Missoula, Montana, United States (59801)
Lat: 46.87N, Lon: 113.99W
Wx Zone: MTZ005
Local Info
Past Weather Observations for Today

NOTE: This archive is for the closest National Weather Service station to Missoula. Information may differ from the station used for current weather conditions.

Click here for Long-term Archive

Time Weather Temperature Dewpoint Humidity Pressure Winds Precip Visibility
16:53
Partly Cloudy
64°F / 18°C 39°F / 4°C 40% 29.71 in
(1006 mb)
W 5.8 mph
(W 9 kph)
- 10SM
15:53
Clear
70°F / 21°C 37°F / 3°C 31% 29.74 in
(1007 mb)
SSW 3.5 mph
(SSW 6 kph)
- 10SM
14:53
Clear
70°F / 21°C 37°F / 3°C 31% 29.77 in
(1008 mb)
Calm - 10SM
13:53
Clear
66°F / 19°C 37°F / 3°C 35% 29.77 in
(1008 mb)
Calm - 10SM
12:53
Clear
63°F / 17°C 37°F / 3°C 39% 29.8 in
(1009 mb)
Variable 3.5 mph
(Variable 6 kph)
- 10SM
11:53
Clear
57°F / 14°C 39°F / 4°C 51% 29.86 in
(1011 mb)
Variable 4.6 mph
(Variable 7 kph)
- 10SM
10:53
Clear
50°F / 10°C 37°F / 3°C 62% 29.89 in
(1012 mb)
Calm - 10SM
09:53
Clear
45°F / 7°C 39°F / 4°C 81% 29.92 in
(1013 mb)
W 3.5 mph
(W 6 kph)
- 10SM
08:53
Clear
39°F / 4°C 37°F / 3°C 93% 29.95 in
(1014 mb)
Calm - 10SM
07:53
Clear
36°F / 2°C 34°F / 1°C 93% 29.95 in
(1014 mb)
Calm - 10SM
06:53
Clear
30°F / -1°C 28°F / -2°C 93% 29.95 in
(1014 mb)
Calm - 10SM
05:53
Partly Cloudy
34°F / 1°C 32°F / 0°C 93% 29.95 in
(1014 mb)
N 3.5 mph
(N 6 kph)
- 9SM
05:51
Partly Cloudy
32°F / 0°C 32°F / 0°C 100% 29.95 in
(1014 mb)
Calm - 8SM
05:41
Partly Cloudy
Fog And Mist
32°F / 0°C 32°F / 0°C 100% 29.95 in
(1014 mb)
Calm - 2SM
05:38
Partly Cloudy
Fog And Mist
32°F / 0°C 32°F / 0°C 100% 29.95 in
(1014 mb)
Calm - 1 1/4SM
05:31
Partly Cloudy
Fog And Mist
30°F / -1°C 30°F / -1°C 100% 29.95 in
(1014 mb)
Calm - 2 1/2SM
04:53
Clear
34°F / 1°C 34°F / 1°C 100% 29.95 in
(1014 mb)
Calm - 10SM
03:53
Clear
Fog And Mist
34°F / 1°C 34°F / 1°C 100% 29.95 in
(1014 mb)
NW 3.5 mph
(NW 6 kph)
- 4SM
03:37
Clear
Fog And Mist
34°F / 1°C 34°F / 1°C 100% 29.95 in
(1014 mb)
W 3.5 mph
(W 6 kph)
- 3SM
03:28
Clear
Fog And Mist
34°F / 1°C 34°F / 1°C 100% 29.95 in
(1014 mb)
Calm - 1 3/4SM
02:53
Clear
36°F / 2°C 34°F / 1°C 93% 29.95 in
(1014 mb)
Calm - 10SM
01:53
Clear
37°F / 3°C 36°F / 2°C 93% 29.95 in
(1014 mb)
Calm - 10SM
00:53
Clear
41°F / 5°C 36°F / 2°C 81% 29.95 in
(1014 mb)
Calm - 10SM
Time Weather Temperature Dewpoint Humidity Pressure Winds Precip Visibility


Weather for websites

WeatherForYou.com, LLC is not responsible for any damages or problems caused by this service. Current weather conditions are obtained from the closest station including government and personal stations which may have varying degrees of accuracy. Weather forecasts are derived from the NOAA NDFD. Like all things, this site belongs to Jesus Christ... He just trusts me to maintain it. If you have any questions or comments email webmaster@weatherforyou.com

Copyright © 2014, WeatherForYou.com LLC. All rights reserved.